timestamp,surface_pressure_avg,surface_temp_avg,battery_voltage,lat,long
2023-09-05 00:09:00+00:00,248.6631,18.81,12.25,47.84626,-54.09684
2023-09-05 00:19:00+00:00,255.5814,18.81,12.25,47.84626,-54.09684
2023-09-05 00:29:00+00:00,258.3898,18.8,12.25,47.84626,-54.09684
2023-09-05 00:39:00+00:00,261.7148,18.8,12.25,47.84626,-54.09684
2023-09-05 00:49:00+00:00,271.063,18.7,12.25,47.84626,-54.09684
2023-09-05 00:59:00+00:00,280.4714,18.7,12.25,47.84626,-54.09684
2023-09-05 01:09:00+00:00,285.0464,18.7,12.25,47.84626,-54.09684
2023-09-05 01:19:00+00:00,292.9397,18.7,12.25,47.84626,-54.09684
2023-09-05 01:29:00+00:00,304.843,18.63,12.25,47.84626,-54.09684
2023-09-05 01:39:00+00:00,313.828,18.68,12.25,47.84626,-54.09684
2023-09-05 01:49:00+00:00,320.7913,18.69,12.25,47.84626,-54.09684
2023-09-05 01:59:00+00:00,330.8613,18.6,12.25,47.84626,-54.09684
2023-09-05 02:09:00+00:00,335.6829,18.59,12.25,47.84626,-54.09684
2023-09-05 02:19:00+00:00,338.7279,18.6,12.25,47.84626,-54.09684
2023-09-05 02:29:00+00:00,342.3914,18.6,12.25,47.84626,-54.09684
2023-09-05 02:39:00+00:00,347.1213,18.6,12.25,47.84626,-54.09684
2023-09-05 02:49:00+00:00,349.6479,18.6,12.25,47.84626,-54.09684
2023-09-05 02:59:00+00:00,347.4829,18.6,12.25,47.84626,-54.09684
2023-09-05 03:09:00+00:00,348.3278,18.6,12.25,47.84626,-54.09684
2023-09-05 03:19:00+00:00,351.4012,18.6,12.25,47.84626,-54.09684
2023-09-05 03:29:00+00:00,351.7795,18.6,12.25,47.84626,-54.09684
2023-09-05 03:39:00+00:00,348.0782,18.6,12.25,47.84626,-54.09684
2023-09-05 03:49:00+00:00,347.2211,18.6,12.25,47.84626,-54.09684
2023-09-05 03:59:00+00:00,347.2878,18.6,12.25,47.84626,-54.09684
2023-09-05 04:09:00+00:00,345.0863,18.6,12.25,47.84626,-54.09684
2023-09-05 04:19:00+00:00,344.1828,18.6,12.25,47.84626,-54.09684
2023-09-05 04:29:00+00:00,343.4979,18.6,12.25,47.84626,-54.09684
2023-09-05 04:39:00+00:00,341.2913,18.6,12.25,47.84626,-54.09684
2023-09-05 04:49:00+00:00,336.2247,18.6,12.25,47.84626,-54.09684
2023-09-05 04:59:00+00:00,331.2563,18.6,12.25,47.84626,-54.09684
2023-09-05 05:09:00+00:00,328.8496,18.6,12.25,47.84626,-54.09684
2023-09-05 05:19:00+00:00,322.2897,18.6,12.17,47.84626,-54.09684
2023-09-05 05:29:00+00:00,312.4446,18.6,12.17,47.84626,-54.09684
2023-09-05 05:39:00+00:00,308.0864,18.59,12.17,47.84626,-54.09684
2023-09-05 05:49:00+00:00,304.128,18.58,12.17,47.84626,-54.09684
2023-09-05 05:59:00+00:00,292.9531,18.56,12.17,47.84626,-54.09684
2023-09-05 06:09:00+00:00,280.9247,18.54,12.17,47.84626,-54.09684
2023-09-05 06:19:00+00:00,276.2731,18.53,12.17,47.84626,-54.09684
2023-09-05 06:29:00+00:00,266.5497,18.8,12.17,47.84626,-54.09684
2023-09-05 06:39:00+00:00,253.5014,18.6,12.17,47.84626,-54.09684
2023-09-05 06:49:00+00:00,245.5014,18.6,12.17,47.84626,-54.09684
2023-09-05 06:59:00+00:00,236.9964,18.8,12.17,47.84626,-54.09684
2023-09-05 07:09:00+00:00,224.1564,18.7,12.17,47.84626,-54.09684
2023-09-05 07:19:00+00:00,213.3348,18.7,12.17,47.84626,-54.09684
2023-09-05 07:29:00+00:00,208.1165,18.72,12.17,47.84626,-54.09684
2023-09-05 07:39:00+00:00,201.4631,18.7,12.17,47.84626,-54.09684
2023-09-05 07:49:00+00:00,195.1831,18.69,12.17,47.84626,-54.09684
2023-09-05 07:59:00+00:00,195.2181,18.7,12.17,47.84626,-54.09684
2023-09-05 08:09:00+00:00,195.2031,18.74,12.17,47.84626,-54.09684
2023-09-05 08:19:00+00:00,192.1831,18.84,12.17,47.84626,-54.09684
2023-09-05 08:29:00+00:00,190.5481,18.77,12.17,47.84626,-54.09684
2023-09-05 08:39:00+00:00,189.8365,18.6,12.17,47.84626,-54.09684
2023-09-05 08:49:00+00:00,190.5665,18.63,12.17,47.84626,-54.09684
2023-09-05 08:59:00+00:00,191.7698,18.69,12.17,47.84626,-54.09684
2023-09-05 09:09:00+00:00,192.5598,18.7,12.17,47.84626,-54.09684
2023-09-05 09:19:00+00:00,193.9449,18.68,12.17,47.84626,-54.09684
2023-09-05 09:29:00+00:00,195.2464,18.7,12.17,47.84626,-54.09684
2023-09-05 09:39:00+00:00,200.5648,18.7,12.17,47.84626,-54.09684
2023-09-05 09:49:00+00:00,209.1515,18.7,12.17,47.84626,-54.09684
2023-09-05 09:59:00+00:00,215.7164,18.7,12.17,47.84626,-54.09684
2023-09-05 10:09:00+00:00,220.683,18.69,12.17,47.84626,-54.09684
2023-09-05 10:19:00+00:00,224.4781,18.6,12.17,47.84626,-54.09684
2023-09-05 10:29:00+00:00,230.8781,18.6,12.17,47.84626,-54.09684
2023-09-05 10:39:00+00:00,238.1681,18.6,12.17,47.84626,-54.09684
2023-09-05 10:49:00+00:00,240.1264,18.6,12.17,47.84626,-54.09684
2023-09-05 10:59:00+00:00,242.7414,18.6,12.17,47.84626,-54.09684
2023-09-05 11:09:00+00:00,248.2698,18.54,12.17,47.84626,-54.09684
2023-09-05 11:19:00+00:00,252.0948,18.5,12.17,47.84626,-54.09684
2023-09-05 11:29:00+00:00,252.0947,18.5,12.17,47.84626,-54.09684
2023-09-05 11:39:00+00:00,253.3714,18.5,12.17,47.84626,-54.09684
2023-09-05 11:49:00+00:00,256.0897,18.5,12.17,47.84626,-54.09684
2023-09-05 11:59:00+00:00,258.7714,18.5,12.17,47.84626,-54.09684
2023-09-05 12:09:00+00:00,261.1564,18.5,12.17,47.84626,-54.09684
2023-09-05 12:19:00+00:00,264.9081,18.5,12.17,47.84626,-54.09684
2023-09-05 12:29:00+00:00,267.0931,18.5,12.17,47.84626,-54.09684
2023-09-05 12:39:00+00:00,269.3947,18.5,12.17,47.84626,-54.09684
2023-09-05 12:49:00+00:00,272.6431,18.49,12.17,47.84626,-54.09684
2023-09-05 12:59:00+00:00,276.8765,18.43,12.17,47.84626,-54.09684
2023-09-05 13:09:00+00:00,281.0481,18.42,12.17,47.84626,-54.09684
2023-09-05 13:19:00+00:00,286.7598,18.42,12.17,47.84626,-54.09684
2023-09-05 13:29:00+00:00,295.1664,18.43,12.17,47.84626,-54.09684
2023-09-05 13:39:00+00:00,304.3831,18.42,12.17,47.84626,-54.09684
2023-09-05 13:49:00+00:00,311.0247,18.42,12.17,47.84626,-54.09684
2023-09-05 13:59:00+00:00,317.558,18.44,12.17,47.84626,-54.09684
2023-09-05 14:09:00+00:00,326.3096,18.4,12.17,47.84626,-54.09684
2023-09-05 14:19:00+00:00,333.6797,18.44,12.17,47.84626,-54.09684
2023-09-05 14:29:00+00:00,337.1096,18.45,12.17,47.84626,-54.09684
2023-09-05 14:39:00+00:00,342.8197,18.46,12.17,47.84626,-54.09684
2023-09-05 14:49:00+00:00,345.8547,18.45,12.17,47.84626,-54.09684
2023-09-05 14:59:00+00:00,344.9263,18.4,12.17,47.84626,-54.09684
2023-09-05 15:09:00+00:00,348.1013,18.4,12.17,47.84626,-54.09684
2023-09-05 15:19:00+00:00,353.1829,18.4,12.17,47.84626,-54.09684
2023-09-05 15:29:00+00:00,353.408,18.4,12.17,47.84626,-54.09684
2023-09-05 15:39:00+00:00,349.8713,18.4,12.17,47.84626,-54.09684
2023-09-05 15:49:00+00:00,350.0129,18.4,12.17,47.84626,-54.09684
2023-09-05 15:59:00+00:00,352.4695,18.4,12.17,47.84626,-54.09684
2023-09-05 16:09:00+00:00,348.4963,18.4,12.17,47.84626,-54.09684
2023-09-05 16:19:01+00:00,344.7096,18.4,12.17,47.84626,-54.09684
2023-09-05 16:29:01+00:00,344.978,18.42,12.17,47.84626,-54.09684
2023-09-05 16:39:01+00:00,342.088,18.45,12.17,47.84626,-54.09684
2023-09-05 16:49:01+00:00,338.7347,18.46,12.17,47.84626,-54.09684
2023-09-05 16:59:01+00:00,339.5112,18.45,12.17,47.84626,-54.09684
2023-09-05 17:09:01+00:00,339.1964,18.46,12.17,47.84626,-54.09684
2023-09-05 17:19:00+00:00,334.9129,18.45,12.17,47.84626,-54.09684
2023-09-05 17:29:00+00:00,331.4713,18.44,12.17,47.84626,-54.09684
2023-09-05 17:39:00+00:00,330.7697,18.46,12.17,47.84626,-54.09684
2023-09-05 17:49:00+00:00,324.9113,18.46,12.17,47.84626,-54.09684
2023-09-05 17:59:00+00:00,318.1929,18.45,12.17,47.84626,-54.09684
2023-09-05 18:09:00+00:00,310.7013,18.46,12.17,47.84626,-54.09684
2023-09-05 18:19:01+00:00,301.543,18.46,12.17,47.84626,-54.09684
2023-09-05 18:29:01+00:00,295.8963,18.45,12.17,47.84626,-54.09684
2023-09-05 18:39:01+00:00,288.6197,18.47,12.17,47.84626,-54.09684
2023-09-05 18:49:01+00:00,278.0781,18.5,12.17,47.84626,-54.09684
2023-09-05 18:59:01+00:00,268.6164,18.52,12.17,47.84626,-54.09684
2023-09-05 19:09:01+00:00,260.2731,18.5,12.17,47.84626,-54.09684
2023-09-05 19:19:00+00:00,248.8631,18.5,12.17,47.84626,-54.09684
2023-09-05 19:29:00+00:00,236.4247,18.58,12.17,47.84626,-54.09684
2023-09-05 19:39:00+00:00,227.0314,18.59,12.17,47.84626,-54.09684
2023-09-05 19:49:00+00:00,219.2665,18.59,12.17,47.84626,-54.09684
2023-09-05 19:59:00+00:00,209.3631,18.68,12.17,47.84626,-54.09684
2023-09-05 20:09:00+00:00,200.7281,18.7,12.17,47.84626,-54.09684
2023-09-05 20:19:01+00:00,196.1514,18.79,12.17,47.84626,-54.09684
2023-09-05 20:29:01+00:00,193.2565,18.8,12.17,47.84626,-54.09684
2023-09-05 20:39:01+00:00,189.5982,18.8,12.17,47.84626,-54.09684
2023-09-05 20:49:01+00:00,188.4781,18.8,12.17,47.84626,-54.09684
2023-09-05 20:59:01+00:00,189.8582,18.8,12.17,47.84626,-54.09684
2023-09-05 21:09:01+00:00,189.3481,18.8,12.17,47.84626,-54.09684
2023-09-05 21:19:00+00:00,189.4682,18.8,12.17,47.84626,-54.09684
2023-09-05 21:29:00+00:00,193.6181,18.8,12.17,47.84626,-54.09684
2023-09-05 21:39:00+00:00,197.3665,18.7,12.17,47.84626,-54.09684
2023-09-05 21:49:00+00:00,200.4498,18.63,12.17,47.84626,-54.09684
2023-09-05 21:59:00+00:00,204.1765,18.7,12.17,47.84626,-54.09684
2023-09-05 22:09:00+00:00,208.3148,18.7,12.17,47.84626,-54.09684
2023-09-05 22:19:00+00:00,210.3498,18.7,12.09,47.84626,-54.09684
2023-09-05 22:29:00+00:00,210.8514,18.79,12.09,47.84626,-54.09684
2023-09-05 22:39:00+00:00,216.0181,18.8,12.09,47.84626,-54.09684
2023-09-05 22:49:00+00:00,220.7948,18.8,12.09,47.84626,-54.09684
2023-09-05 22:59:00+00:00,219.4264,18.8,12.09,47.84626,-54.09684
2023-09-05 23:09:00+00:00,217.6764,18.79,12.09,47.84626,-54.09684
2023-09-05 23:19:00+00:00,221.3982,18.79,12.09,47.84626,-54.09684
2023-09-05 23:29:00+00:00,223.4981,18.8,12.09,47.84626,-54.09684
2023-09-05 23:39:00+00:00,222.7414,18.7,12.09,47.84626,-54.09684
2023-09-05 23:49:00+00:00,225.0331,18.54,12.09,47.84626,-54.09684
2023-09-05 23:59:00+00:00,227.3315,18.6,12.09,47.84626,-54.09684
